Tracking 18624 objects as of 30-April-2017
HD Live streaming from Space Station
objects crossing your sky now

BEIDOU 1B

Track BEIDOU 1B now!
BEIDOU 1B is classified as:


NORAD ID: 26643
Int'l Code: 2000-082A
Perigee: 35,732.9 km
Apogee: 36,429.5 km
Inclination: 7.9 °
Period: 1,450.8 minutes
Semi major axis: 42452 km
RCS: 0.1238 m2 (medium)
Launch date: December 20, 2000
Source: People's Republic of China (PRC)
Launch site: Xichang Space Center, China (XSC)

Space-bsaed navigation and positioning system to improve accuracy of weapons and situational awareness of military forces.
Your satellite tracking list
Your tracking list is empty





NASA's NSSDC Master Catalog

Two Line Element Set (TLE):
1 26643U 00082A   17117.53001366 -.00000161 +00000-0 +00000-0 0  9991
2 26643 007.8969 048.7608 0082046 005.9698 354.0227 00.99255109059728
Source of the keplerian elements: AFSPC